DW8947 Weather Reports


time (UTC)temp
F
wind
direction
speed
knots
gust
knots
rain 1hr
in
rain 24hr
in
rain mn
in
humidity
%
barometer
mb
20260506091705 52 181 0.0 0.0 0.00 0.00 0.00 92 1015.6
20260506090205 52 181 0.0 0.0 0.00 0.00 0.00 92 1015.6
20260506085205 52 181 0.0 0.0 0.00 0.00 0.00 92 1015.5
20260506084204 53 181 0.0 0.0 0.00 0.00 0.00 91 1015.4
20260506083204 53 181 0.0 0.0 0.00 0.00 0.00 91 1015.3
20260506082205 53 181 0.0 0.0 0.00 0.00 0.00 91 1015.3
20260506081704 53 181 0.0 0.0 0.00 0.00 0.00 91 1015.2
20260506080205 53 181 0.0 0.0 0.00 0.00 0.00 90 1015.1
20260506073205 54 181 0.0 0.0 0.00 0.00 0.00 90 1015.0
20260506072705 54 181 0.0 0.0 0.00 0.00 0.00 89 1014.9
20260506072205 54 181 0.0 0.0 0.00 0.00 0.00 89 1014.9
20260506071205 54 181 0.0 0.0 0.00 0.00 0.00 89 1014.8
20260506070205 55 181 0.0 0.0 0.00 0.00 0.00 88 1014.8
20260506061205 56 181 0.0 1.7 0.00 0.00 0.00 87 1014.5
20260506060704 56 181 0.0 0.0 0.00 0.00 0.00 86 1014.5
20260506060204 57 181 0.0 0.0 0.00 0.00 0.00 86 1014.4
20260506050705 57 181 0.0 0.0 0.00 0.00 0.00 86 1013.8
20260506050205 57 181 0.0 1.7 0.00 0.00 0.00 86 1013.8
20260506044705 57 181 0.0 1.7 0.00 0.00 0.00 85 1013.6
20260506044205 57 181 0.0 0.0 0.00 0.00 0.00 85 1013.7
20260506043204 58 181 0.0 1.7 0.00 0.00 0.00 85 1013.6
20260506042205 58 181 0.0 0.0 0.00 0.00 0.00 84 1013.6
20260506041704 58 181 0.0 1.7 0.00 0.00 0.00 84 1013.6
20260506041204 58 181 0.0 0.0 0.00 0.00 0.00 84 1013.5
20260506040205 58 181 0.0 0.9 0.00 0.00 0.00 84 1013.4
20260506035204 58 181 0.0 0.9 0.00 0.00 0.00 84 1013.4
20260506034704 58 181 0.0 0.9 0.00 0.00 0.00 84 1013.3
20260506034205 58 181 0.0 0.0 0.00 0.00 0.00 83 1013.3
20260506033705 58 181 0.0 0.9 0.00 0.00 0.00 83 1013.3
20260506033205 58 181 0.0 0.9 0.00 0.00 0.00 83 1013.3
20260506031704 59 181 0.0 0.0 0.00 0.00 0.00 82 1013.2
20260506030704 59 181 0.0 0.0 0.00 0.00 0.00 82 1013.1
20260506030205 59 181 0.0 1.7 0.00 0.00 0.00 82 1013.2
20260506025204 59 181 0.0 1.7 0.00 0.00 0.00 81 1013.1
20260506024705 60 181 0.0 0.0 0.00 0.00 0.00 81 1013.1
20260506023205 60 181 0.0 0.9 0.00 0.00 0.00 80 1013.1
20260506021705 61 181 0.0 0.0 0.00 0.00 0.00 79 1013.1
20260506020704 61 181 0.0 0.9 0.00 0.00 0.00 79 1013.0
20260506014706 61 181 0.0 1.7 0.00 0.00 0.00 78 1013.0
20260506014205 61 181 0.0 1.7 0.00 0.00 0.00 78 1013.1
20260506013704 61 181 0.0 1.7 0.00 0.00 0.00 78 1013.1
20260506012204 61 182 0.0 1.7 0.00 0.00 0.00 77 1013.2
20260506011705 61 185 0.0 1.7 0.00 0.00 0.00 77 1013.2
20260506011205 61 185 0.0 1.7 0.00 0.00 0.00 76 1013.2
20260506010204 61 185 0.0 1.7 0.00 0.00 0.00 77 1013.2
20260506005705 61 185 0.0 1.7 0.00 0.00 0.00 75 1013.2
20260506005204 61 181 0.0 0.9 0.00 0.00 0.00 76 1013.2
20260506004704 61 174 0.0 1.7 0.00 0.00 0.00 76 1013.2
20260506004204 61 173 0.0 2.6 0.00 0.00 0.00 75 1013.3
20260506002704 61 136 0.9 1.7 0.00 0.00 0.00 75 1013.3
20260506002204 61 189 0.9 1.7 0.00 0.00 0.00 75 1013.4
20260506001704 62 177 0.9 1.7 0.00 0.00 0.00 75 1013.4
20260506001205 61 192 0.9 1.7 0.00 0.00 0.00 76 1013.5
20260506000205 61 187 0.9 1.7 0.00 0.00 0.00 75 1013.5
20260505235705 62 174 0.0 1.7 0.00 0.00 0.00 75 1013.5
20260505225704 64 169 0.9 1.7 0.00 0.00 0.00 70 1013.9
20260505223704 65 183 0.9 1.7 0.00 0.00 0.00 70 1014.0
20260505223205 65 183 0.9 1.7 0.00 0.00 0.00 70 1014.0
20260505222704 64 130 0.0 1.7 0.00 0.00 0.00 69 1014.0
20260505220205 64 162 0.9 1.7 0.00 0.00 0.00 70 1014.2
20260505215704 64 329 0.9 1.7 0.00 0.00 0.00 72 1014.2
20260505214204 64 196 0.9 1.7 0.00 0.00 0.00 70 1014.3
20260505213205 64 63 0.9 1.7 0.00 0.00 0.00 70 1014.4
20260505211705 65 267 0.0 1.7 0.00 0.00 0.00 70 1014.5
20260505211205 64 252 0.9 1.7 0.00 0.00 0.00 72 1014.5
20260505210704 64 73 0.9 1.7 0.00 0.00 0.00 71 1014.5
20260505205704 63 209 0.9 0.9 0.00 0.00 0.00 73 1014.5
20260505204704 62 207 0.9 1.7 0.00 0.00 0.00 74 1014.6
20260505204205 62 244 0.9 1.7 0.00 0.00 0.00 76 1014.6
20260505203204 61 245 0.9 1.7 0.00 0.00 0.00 75 1014.7
20260505202704 61 260 0.0 1.7 0.00 0.00 0.00 76 1014.7
20260505202205 61 301 0.9 1.7 0.00 0.00 0.00 76 1014.7
20260505200204 60 268 0.9 1.7 0.00 0.00 0.00 78 1014.7
20260505195705 59 285 0.9 0.9 0.00 0.00 0.00 78 1014.7
20260505194205 60 174 0.9 1.7 0.00 0.00 0.00 77 1014.6
20260505193704 60 10 0.9 2.6 0.00 0.00 0.00 78 1014.7
20260505193204 60 214 0.0 0.9 0.00 0.00 0.00 78 1014.7
20260505192705 60 204 0.9 1.7 0.00 0.00 0.00 78 1014.6
20260505192205 60 168 0.0 1.7 0.00 0.00 0.00 78 1014.7
20260505191205 59 168 0.0 1.7 0.00 0.00 0.00 78 1014.6
20260505190704 59 199 0.0 1.7 0.00 0.00 0.00 79 1014.7
20260505190204 59 162 0.0 1.7 0.00 0.00 0.00 78 1014.6
20260505185704 59 162 0.9 1.7 0.00 0.00 0.00 79 1014.6
20260505184204 59 117 0.0 1.7 0.00 0.00 0.00 79 1014.5
20260505180704 58 163 0.0 0.9 0.00 0.00 0.00 81 1014.4
20260505175204 58 218 0.0 1.7 0.00 0.00 0.00 81 1014.5
20260505174704 58 218 0.0 1.7 0.00 0.00 0.00 82 1014.5
20260505174204 58 218 0.0 0.9 0.00 0.00 0.00 81 1014.4
20260505173704 58 218 0.0 1.7 0.00 0.00 0.00 81 1014.4
20260505172704 58 218 0.0 1.7 0.00 0.00 0.00 80 1014.5
20260505171704 57 179 0.0 1.7 0.00 0.00 0.00 82 1014.4
20260505171204 57 179 0.0 1.7 0.00 0.00 0.00 82 1014.4
20260505170704 57 139 0.0 1.7 0.00 0.00 0.00 81 1014.4
20260505165704 57 139 0.0 1.7 0.00 0.00 0.00 82 1014.3
20260505164705 57 139 0.0 1.7 0.00 0.00 0.00 83 1014.3
20260505163204 56 144 0.0 1.7 0.00 0.00 0.00 83 1014.1
20260505162705 56 144 0.0 0.9 0.00 0.00 0.00 83 1014.2
20260505162204 56 144 0.0 1.7 0.00 0.00 0.00 83 1014.2
20260505161705 56 144 0.0 1.7 0.00 0.00 0.00 84 1014.1
20260505161204 56 144 0.0 1.7 0.00 0.00 0.00 85 1014.1
20260505153204 55 163 0.0 1.7 0.00 0.00 0.00 85 1013.9
20260505152704 55 163 0.0 0.9 0.00 0.00 0.00 85 1013.9
20260505152204 55 163 0.0 0.9 0.00 0.00 0.00 85 1013.8
20260505151704 55 163 0.0 0.9 0.00 0.00 0.00 85 1013.7
20260505151204 55 244 0.0 1.7 0.00 0.00 0.00 85 1013.6
20260505123704 55 214 0.0 1.7 0.00 0.00 0.00 88 1012.1
20260505123204 55 217 0.0 1.7 0.00 0.00 0.00 88 1012.0
20260505122205 55 228 0.0 1.7 0.00 0.00 0.00 88 1011.9
20260505120704 55 223 0.0 1.7 0.00 0.00 0.00 88 1011.9
20260505115705 55 223 0.0 1.7 0.00 0.00 0.00 88 1011.8
20260505115204 55 223 0.0 1.7 0.00 0.00 0.00 88 1011.8
20260505114704 55 246 0.0 0.9 0.00 0.00 0.00 88 1011.8
20260505112204 55 246 0.0 1.7 0.00 0.00 0.00 88 1011.6
20260505111704 55 239 0.0 1.7 0.00 0.00 0.00 88 1011.6
20260505110204 55 239 0.0 1.7 0.00 0.00 0.00 88 1011.5
20260505101204 54 61 0.0 1.7 0.00 0.00 0.00 90 1011.1
20260505100204 54 61 0.0 1.7 0.00 0.00 0.00 90 1011.0
20260505095704 54 61 0.0 1.7 0.00 0.00 0.00 90 1011.1
20260505093704 54 158 0.0 1.7 0.00 0.00 0.00 90 1010.9
20260505092704 54 158 0.0 0.0 0.00 0.00 0.00 90 1010.8
20260505092204 54 158 0.0 0.0 0.00 0.00 0.00 90 1010.8